owner,sensor,date,latitude,longitude,vertical_datum,sea_water_practical_salinity,qcFlag 
SCCF RECON,ioos:station:SCCF:11:1,2019-02-01T05:00:00Z,26.4679,-82.0631,1.11,27.24,1111122 
SCCF RECON,ioos:station:SCCF:11:1,2019-02-01T06:00:00Z,26.4679,-82.0631,1.01,26.84,1111122 
SCCF RECON,ioos:station:SCCF:11:1,2019-02-01T07:00:00Z,26.4679,-82.0631,0.869,26.8,1111122 
SCCF RECON,ioos:station:SCCF:11:1,2019-02-01T08:00:00Z,26.4679,-82.0631,0.745,27.56,1111122 
SCCF RECON,ioos:station:SCCF:11:1,2019-02-01T09:00:00Z,26.4679,-82.0631,0.652,27.77,1111122 
SCCF RECON,ioos:station:SCCF:11:1,2019-02-01T10:00:00Z,26.4679,-82.0631,0.58,27.69,1111122 
SCCF RECON,ioos:station:SCCF:11:1,2019-02-01T11:00:00Z,26.4679,-82.0631,0.56,27.69,1111122 
SCCF RECON,ioos:station:SCCF:11:1,2019-02-01T12:00:00Z,26.4679,-82.0631,0.65,28.04,1111122 
SCCF RECON,ioos:station:SCCF:11:1,2019-02-01T13:00:00Z,26.4679,-82.0631,0.789,27.4,1111122 
SCCF RECON,ioos:station:SCCF:11:1,2019-02-01T14:00:00Z,26.4679,-82.0631,0.906,25.22,1111122 
SCCF RECON,ioos:station:SCCF:11:1,2019-02-01T15:00:00Z,26.4679,-82.0631,1.01,25.74,1111122 
SCCF RECON,ioos:station:SCCF:11:1,2019-02-01T16:00:00Z,26.4679,-82.0631,1.101,25.62,1111122 
SCCF RECON,ioos:station:SCCF:11:1,2019-02-01T17:00:00Z,26.4679,-82.0631,1.148,25.54,1111122 
SCCF RECON,ioos:station:SCCF:11:1,2019-02-01T18:00:00Z,26.4679,-82.0631,1.174,26.31,1111122 
SCCF RECON,ioos:station:SCCF:11:1,2019-02-01T19:00:00Z,26.4679,-82.0631,1.159,26.57,1111122 
SCCF RECON,ioos:station:SCCF:11:1,2019-02-01T20:00:00Z,26.4679,-82.0631,1.063,25.83,1111122 
SCCF RECON,ioos:station:SCCF:11:1,2019-02-01T21:00:00Z,26.4679,-82.0631,1.031,25.98,1111122 
SCCF RECON,ioos:station:SCCF:11:1,2019-02-01T22:00:00Z,26.4679,-82.0631,1.046,26.14,1111122 
SCCF RECON,ioos:station:SCCF:11:1,2019-02-01T23:00:00Z,26.4679,-82.0631,1.109,25.94,1111122 
SCCF RECON,ioos:station:SCCF:11:1,2019-02-02T05:00:00Z,26.4679,-82.0631,1.25,26.99,1111122 
SCCF RECON,ioos:station:SCCF:11:1,2019-02-02T06:00:00Z,26.4679,-82.0631,1.18,26.56,1111122 
SCCF RECON,ioos:station:SCCF:11:1,2019-02-02T07:00:00Z,26.4679,-82.0631,1.041,26.92,1111122 
SCCF RECON,ioos:station:SCCF:11:1,2019-02-02T08:00:00Z,26.4679,-82.0631,0.896,27.32,1111122 
SCCF RECON,ioos:station:SCCF:11:1,2019-02-02T09:00:00Z,26.4679,-82.0631,0.762,27.46,1111122 
SCCF RECON,ioos:station:SCCF:11:1,2019-02-02T10:00:00Z,26.4679,-82.0631,0.639,27.52,1111122 
SCCF RECON,ioos:station:SCCF:11:1,2019-02-02T11:00:00Z,26.4679,-82.0631,0.569,27.56,1111122 
SCCF RECON,ioos:station:SCCF:11:1,2019-02-02T12:00:00Z,26.4679,-82.0631,0.57,27.18,1111122 
SCCF RECON,ioos:station:SCCF:11:1,2019-02-02T13:00:00Z,26.4679,-82.0631,0.689,27.32,1111122 
SCCF RECON,ioos:station:SCCF:11:1,2019-02-02T14:00:00Z,26.4679,-82.0631,0.85,26.89,1111122 
SCCF RECON,ioos:station:SCCF:11:1,2019-02-02T15:00:00Z,26.4679,-82.0631,0.97,25.89,1111122 
SCCF RECON,ioos:station:SCCF:11:1,2019-02-02T16:00:00Z,26.4679,-82.0631,1.065,26.47,1111122 
SCCF RECON,ioos:station:SCCF:11:1,2019-02-02T17:00:00Z,26.4679,-82.0631,1.16,26.24,1111122 
SCCF RECON,ioos:station:SCCF:11:1,2019-02-02T18:00:00Z,26.4679,-82.0631,1.19,26.26,1111122 
SCCF RECON,ioos:station:SCCF:11:1,2019-02-02T19:00:00Z,26.4679,-82.0631,1.159,27.05,1111122 
SCCF RECON,ioos:station:SCCF:11:1,2019-02-02T20:00:00Z,26.4679,-82.0631,1.08,26.51,1111122 
SCCF RECON,ioos:station:SCCF:11:1,2019-02-02T21:00:00Z,26.4679,-82.0631,1.021,26.54,1111122 
SCCF RECON,ioos:station:SCCF:11:1,2019-02-02T22:00:00Z,26.4679,-82.0631,1.001,27.5,1111122 
SCCF RECON,ioos:station:SCCF:11:1,2019-02-02T23:00:00Z,26.4679,-82.0631,1.013,27.95,1111122 
SCCF RECON,ioos:station:SCCF:11:1,2019-02-03T05:00:00Z,26.4679,-82.0631,1.34,28.27,1111122 
SCCF RECON,ioos:station:SCCF:11:1,2019-02-03T06:00:00Z,26.4679,-82.0631,1.271,27.82,1111122 
SCCF RECON,ioos:station:SCCF:11:1,2019-02-03T07:00:00Z,26.4679,-82.0631,1.14,26.92,1111122 
SCCF RECON,ioos:station:SCCF:11:1,2019-02-03T08:00:00Z,26.4679,-82.0631,0.981,27.12,1111122 
SCCF RECON,ioos:station:SCCF:11:1,2019-02-03T09:00:00Z,26.4679,-82.0631,0.84,27.12,1111122 
SCCF RECON,ioos:station:SCCF:11:1,2019-02-03T10:00:00Z,26.4679,-82.0631,0.71,27.18,1111122 
SCCF RECON,ioos:station:SCCF:11:1,2019-02-03T11:00:00Z,26.4679,-82.0631,0.609,27.25,1111122 
SCCF RECON,ioos:station:SCCF:11:1,2019-02-03T12:00:00Z,26.4679,-82.0631,0.549,27.23,1111122 
SCCF RECON,ioos:station:SCCF:11:1,2019-02-03T13:00:00Z,26.4679,-82.0631,0.6,27.2,1111122 
SCCF RECON,ioos:station:SCCF:11:1,2019-02-03T14:00:00Z,26.4679,-82.0631,0.75,28.18,1111122 
SCCF RECON,ioos:station:SCCF:11:1,2019-02-03T15:00:00Z,26.4679,-82.0631,0.911,27.02,1111122 
SCCF RECON,ioos:station:SCCF:11:1,2019-02-03T16:00:00Z,26.4679,-82.0631,1.021,27.0,1111122 
SCCF RECON,ioos:station:SCCF:11:1,2019-02-03T17:00:00Z,26.4679,-82.0631,1.118,27.14,1111122 
SCCF RECON,ioos:station:SCCF:11:1,2019-02-03T18:00:00Z,26.4679,-82.0631,1.175,26.97,1111122 
SCCF RECON,ioos:station:SCCF:11:1,2019-02-03T19:00:00Z,26.4679,-82.0631,1.148,27.09,1111122 
SCCF RECON,ioos:station:SCCF:11:1,2019-02-03T20:00:00Z,26.4679,-82.0631,1.079,26.91,1111122 
SCCF RECON,ioos:station:SCCF:11:1,2019-02-03T21:00:00Z,26.4679,-82.0631,0.997,27.01,1111122 
SCCF RECON,ioos:station:SCCF:11:1,2019-02-03T22:00:00Z,26.4679,-82.0631,0.943,27.02,1111122 
SCCF RECON,ioos:station:SCCF:11:1,2019-02-03T23:00:00Z,26.4679,-82.0631,0.93,26.92,1111122 
SCCF RECON,ioos:station:SCCF:11:1,2019-02-04T05:00:00Z,26.4679,-82.0631,1.379,27.53,1111122 
SCCF RECON,ioos:station:SCCF:11:1,2019-02-04T06:00:00Z,26.4679,-82.0631,1.328,26.59,1111122 
SCCF RECON,ioos:station:SCCF:11:1,2019-02-04T07:00:00Z,26.4679,-82.0631,1.21,26.99,1111122 
SCCF RECON,ioos:station:SCCF:11:1,2019-02-04T08:00:00Z,26.4679,-82.0631,1.055,27.02,1111122 
SCCF RECON,ioos:station:SCCF:11:1,2019-02-04T09:00:00Z,26.4679,-82.0631,0.919,27.01,1111122 
SCCF RECON,ioos:station:SCCF:11:1,2019-02-04T10:00:00Z,26.4679,-82.0631,0.785,27.04,1111122 
SCCF RECON,ioos:station:SCCF:11:1,2019-02-04T11:00:00Z,26.4679,-82.0631,0.661,27.06,1111122 
SCCF RECON,ioos:station:SCCF:11:1,2019-02-04T12:00:00Z,26.4679,-82.0631,0.576,27.11,1111122 
SCCF RECON,ioos:station:SCCF:11:1,2019-02-04T13:00:00Z,26.4679,-82.0631,0.553,27.15,1111122 
SCCF RECON,ioos:station:SCCF:11:1,2019-02-04T14:00:00Z,26.4679,-82.0631,0.66,27.08,1111122 
SCCF RECON,ioos:station:SCCF:11:1,2019-02-04T15:00:00Z,26.4679,-82.0631,0.82,27.58,1111122 
SCCF RECON,ioos:station:SCCF:11:1,2019-02-04T16:00:00Z,26.4679,-82.0631,0.968,25.89,1111122 
SCCF RECON,ioos:station:SCCF:11:1,2019-02-04T17:00:00Z,26.4679,-82.0631,1.078,26.9,1111122 
SCCF RECON,ioos:station:SCCF:11:1,2019-02-04T18:00:00Z,26.4679,-82.0631,1.15,26.81,1111122 
SCCF RECON,ioos:station:SCCF:11:1,2019-02-04T19:00:00Z,26.4679,-82.0631,1.163,26.52,1111122 
SCCF RECON,ioos:station:SCCF:11:1,2019-02-04T20:00:00Z,26.4679,-82.0631,1.11,26.62,1111122 
SCCF RECON,ioos:station:SCCF:11:1,2019-02-04T21:00:00Z,26.4679,-82.0631,1.029,26.7,1111122 
SCCF RECON,ioos:station:SCCF:11:1,2019-02-04T22:00:00Z,26.4679,-82.0631,0.979,26.69,1111122 
SCCF RECON,ioos:station:SCCF:11:1,2019-02-04T23:00:00Z,26.4679,-82.0631,0.95,26.64,1111122 
SCCF RECON,ioos:station:SCCF:11:1,2019-02-05T05:00:00Z,26.4679,-82.0631,1.36,27.29,1111122 
SCCF RECON,ioos:station:SCCF:11:1,2019-02-05T06:00:00Z,26.4679,-82.0631,1.37,27.15,1111122 
SCCF RECON,ioos:station:SCCF:11:1,2019-02-05T07:00:00Z,26.4679,-82.0631,1.28,27.12,1111122 
SCCF RECON,ioos:station:SCCF:11:1,2019-02-05T08:00:00Z,26.4679,-82.0631,1.11,26.9,1111122 
SCCF RECON,ioos:station:SCCF:11:1,2019-02-05T09:00:00Z,26.4679,-82.0631,0.96,26.88,1111122 
SCCF RECON,ioos:station:SCCF:11:1,2019-02-05T10:00:00Z,26.4679,-82.0631,0.827,26.92,1111122 
SCCF RECON,ioos:station:SCCF:11:1,2019-02-05T11:00:00Z,26.4679,-82.0631,0.71,26.96,1111122 
SCCF RECON,ioos:station:SCCF:11:1,2019-02-05T12:00:00Z,26.4679,-82.0631,0.602,26.97,1111122 
SCCF RECON,ioos:station:SCCF:11:1,2019-02-05T13:00:00Z,26.4679,-82.0631,0.547,26.99,1111122 
SCCF RECON,ioos:station:SCCF:11:1,2019-02-05T14:00:00Z,26.4679,-82.0631,0.605,26.89,1111122 
SCCF RECON,ioos:station:SCCF:11:1,2019-02-05T15:00:00Z,26.4679,-82.0631,0.764,26.97,1111122 
SCCF RECON,ioos:station:SCCF:11:1,2019-02-05T16:00:00Z,26.4679,-82.0631,0.93,26.06,1111122 
SCCF RECON,ioos:station:SCCF:11:1,2019-02-05T17:00:00Z,26.4679,-82.0631,1.059,26.71,1111122 
SCCF RECON,ioos:station:SCCF:11:1,2019-02-05T18:00:00Z,26.4679,-82.0631,1.144,26.95,1111122 
SCCF RECON,ioos:station:SCCF:11:1,2019-02-05T19:00:00Z,26.4679,-82.0631,1.196,26.65,1111122 
SCCF RECON,ioos:station:SCCF:11:1,2019-02-05T20:00:00Z,26.4679,-82.0631,1.173,26.73,1111122 
SCCF RECON,ioos:station:SCCF:11:1,2019-02-05T21:00:00Z,26.4679,-82.0631,1.072,26.61,1111122 
SCCF RECON,ioos:station:SCCF:11:1,2019-02-05T22:00:00Z,26.4679,-82.0631,0.981,26.72,1111122 
SCCF RECON,ioos:station:SCCF:11:1,2019-02-05T23:00:00Z,26.4679,-82.0631,0.949,26.69,1111122 
SCCF RECON,ioos:station:SCCF:11:1,2019-02-06T05:00:00Z,26.4679,-82.0631,1.351,27.11,1111122 
SCCF RECON,ioos:station:SCCF:11:1,2019-02-06T06:00:00Z,26.4679,-82.0631,1.38,26.64,1111122 
SCCF RECON,ioos:station:SCCF:11:1,2019-02-06T07:00:00Z,26.4679,-82.0631,1.35,26.71,1111122 
SCCF RECON,ioos:station:SCCF:11:1,2019-02-06T08:00:00Z,26.4679,-82.0631,1.231,26.76,1111122 
SCCF RECON,ioos:station:SCCF:11:1,2019-02-06T09:00:00Z,26.4679,-82.0631,1.074,26.89,1111122 
SCCF RECON,ioos:station:SCCF:11:1,2019-02-06T10:00:00Z,26.4679,-82.0631,0.921,26.87,1111122 
SCCF RECON,ioos:station:SCCF:11:1,2019-02-06T11:00:00Z,26.4679,-82.0631,0.798,26.87,1111122 
SCCF RECON,ioos:station:SCCF:11:1,2019-02-06T12:00:00Z,26.4679,-82.0631,0.68,26.89,1111122 
SCCF RECON,ioos:station:SCCF:11:1,2019-02-06T13:00:00Z,26.4679,-82.0631,0.591,26.9,1111122 
SCCF RECON,ioos:station:SCCF:11:1,2019-02-06T14:00:00Z,26.4679,-82.0631,0.581,26.93,1111122 
SCCF RECON,ioos:station:SCCF:11:1,2019-02-06T15:00:00Z,26.4679,-82.0631,0.698,26.89,1111122 
SCCF RECON,ioos:station:SCCF:11:1,2019-02-06T16:00:00Z,26.4679,-82.0631,0.867,27.32,1111122 
SCCF RECON,ioos:station:SCCF:11:1,2019-02-06T17:00:00Z,26.4679,-82.0631,1.008,26.44,1111122 
SCCF RECON,ioos:station:SCCF:11:1,2019-02-06T18:00:00Z,26.4679,-82.0631,1.09,26.86,1111122 
SCCF RECON,ioos:station:SCCF:11:1,2019-02-06T19:00:00Z,26.4679,-82.0631,1.177,26.83,1111122 
SCCF RECON,ioos:station:SCCF:11:1,2019-02-06T20:00:00Z,26.4679,-82.0631,1.205,26.94,1111122 
SCCF RECON,ioos:station:SCCF:11:1,2019-02-06T21:00:00Z,26.4679,-82.0631,1.152,26.91,1111122 
SCCF RECON,ioos:station:SCCF:11:1,2019-02-06T23:00:00Z,26.4679,-82.0631,0.98,26.74,1111122 
SCCF RECON,ioos:station:SCCF:11:1,2019-02-07T05:00:00Z,26.4679,-82.0631,1.296,27.39,1111122 
SCCF RECON,ioos:station:SCCF:11:1,2019-02-07T06:00:00Z,26.4679,-82.0631,1.34,27.22,1111122 
SCCF RECON,ioos:station:SCCF:11:1,2019-02-07T07:00:00Z,26.4679,-82.0631,1.36,27.06,1111122 
SCCF RECON,ioos:station:SCCF:11:1,2019-02-07T08:00:00Z,26.4679,-82.0631,1.27,26.85,1111122 
SCCF RECON,ioos:station:SCCF:11:1,2019-02-07T09:00:00Z,26.4679,-82.0631,1.14,26.88,1111122 
SCCF RECON,ioos:station:SCCF:11:1,2019-02-07T10:00:00Z,26.4679,-82.0631,0.994,26.9,1111122 
SCCF RECON,ioos:station:SCCF:11:1,2019-02-07T11:00:00Z,26.4679,-82.0631,0.86,26.92,1111122 
SCCF RECON,ioos:station:SCCF:11:1,2019-02-07T12:00:00Z,26.4679,-82.0631,0.758,26.92,1111122 
SCCF RECON,ioos:station:SCCF:11:1,2019-02-07T13:00:00Z,26.4679,-82.0631,0.656,26.95,1111122 
SCCF RECON,ioos:station:SCCF:11:1,2019-02-07T14:00:00Z,26.4679,-82.0631,0.601,26.97,1111122 
SCCF RECON,ioos:station:SCCF:11:1,2019-02-07T15:00:00Z,26.4679,-82.0631,0.64,26.84,1111122 
SCCF RECON,ioos:station:SCCF:11:1,2019-02-07T16:00:00Z,26.4679,-82.0631,0.79,26.95,1111122 
SCCF RECON,ioos:station:SCCF:11:1,2019-02-07T17:00:00Z,26.4679,-82.0631,0.956,26.67,1111122 
SCCF RECON,ioos:station:SCCF:11:1,2019-02-07T18:00:00Z,26.4679,-82.0631,1.068,26.83,1111122 
SCCF RECON,ioos:station:SCCF:11:1,2019-02-07T19:00:00Z,26.4679,-82.0631,1.145,27.19,1111122 
SCCF RECON,ioos:station:SCCF:11:1,2019-02-07T20:00:00Z,26.4679,-82.0631,1.19,27.2,1111122 
SCCF RECON,ioos:station:SCCF:11:1,2019-02-07T21:00:00Z,26.4679,-82.0631,1.16,27.27,1111122 
SCCF RECON,ioos:station:SCCF:11:1,2019-02-07T22:00:00Z,26.4679,-82.0631,1.1,26.96,1111122 
SCCF RECON,ioos:station:SCCF:11:1,2019-02-07T23:00:00Z,26.4679,-82.0631,1.009,26.85,1111122 
SCCF RECON,ioos:station:SCCF:11:1,2019-02-08T05:00:00Z,26.4679,-82.0631,1.25,27.47,1111122 
SCCF RECON,ioos:station:SCCF:11:1,2019-02-08T06:00:00Z,26.4679,-82.0631,1.34,27.19,1111122 
SCCF RECON,ioos:station:SCCF:11:1,2019-02-08T07:00:00Z,26.4679,-82.0631,1.36,27.12,1111122 
SCCF RECON,ioos:station:SCCF:11:1,2019-02-08T08:00:00Z,26.4679,-82.0631,1.33,26.87,1111122 
SCCF RECON,ioos:station:SCCF:11:1,2019-02-08T09:00:00Z,26.4679,-82.0631,1.23,26.94,1111122 
SCCF RECON,ioos:station:SCCF:11:1,2019-02-08T10:00:00Z,26.4679,-82.0631,1.093,27.01,1111122 
SCCF RECON,ioos:station:SCCF:11:1,2019-02-08T11:00:00Z,26.4679,-82.0631,0.961,27.0,1111122 
SCCF RECON,ioos:station:SCCF:11:1,2019-02-08T12:00:00Z,26.4679,-82.0631,0.853,26.98,1111122 
SCCF RECON,ioos:station:SCCF:11:1,2019-02-08T13:00:00Z,26.4679,-82.0631,0.76,26.99,1111122 
SCCF RECON,ioos:station:SCCF:11:1,2019-02-08T14:00:00Z,26.4679,-82.0631,0.69,27.01,1111122 
SCCF RECON,ioos:station:SCCF:11:1,2019-02-08T15:00:00Z,26.4679,-82.0631,0.68,27.01,1111122 
SCCF RECON,ioos:station:SCCF:11:1,2019-02-08T16:00:00Z,26.4679,-82.0631,0.767,27.01,1111122 
SCCF RECON,ioos:station:SCCF:11:1,2019-02-08T17:00:00Z,26.4679,-82.0631,0.926,27.56,1111122 
SCCF RECON,ioos:station:SCCF:11:1,2019-02-08T18:00:00Z,26.4679,-82.0631,1.068,26.5,1111122 
SCCF RECON,ioos:station:SCCF:11:1,2019-02-08T19:00:00Z,26.4679,-82.0631,1.148,26.84,1111122 
SCCF RECON,ioos:station:SCCF:11:1,2019-02-08T20:00:00Z,26.4679,-82.0631,1.182,27.0,1111122 
SCCF RECON,ioos:station:SCCF:11:1,2019-02-08T21:00:00Z,26.4679,-82.0631,1.161,26.88,1111122 
SCCF RECON,ioos:station:SCCF:11:1,2019-02-08T22:00:00Z,26.4679,-82.0631,1.076,26.74,1111122 
SCCF RECON,ioos:station:SCCF:11:1,2019-02-08T23:00:00Z,26.4679,-82.0631,0.98,26.67,1111122 
SCCF RECON,ioos:station:SCCF:11:1,2019-02-09T05:00:00Z,26.4679,-82.0631,1.02,27.31,1111122 
SCCF RECON,ioos:station:SCCF:11:1,2019-02-09T06:00:00Z,26.4679,-82.0631,1.12,27.19,1111122 
SCCF RECON,ioos:station:SCCF:11:1,2019-02-09T07:00:00Z,26.4679,-82.0631,1.18,26.96,1111122 
SCCF RECON,ioos:station:SCCF:11:1,2019-02-09T08:00:00Z,26.4679,-82.0631,1.198,26.94,1111122 
SCCF RECON,ioos:station:SCCF:11:1,2019-02-09T09:00:00Z,26.4679,-82.0631,1.17,26.95,1111122 
SCCF RECON,ioos:station:SCCF:11:1,2019-02-09T10:00:00Z,26.4679,-82.0631,1.061,26.86,1111122 
SCCF RECON,ioos:station:SCCF:11:1,2019-02-09T11:00:00Z,26.4679,-82.0631,0.95,26.97,1111122 
SCCF RECON,ioos:station:SCCF:11:1,2019-02-09T12:00:00Z,26.4679,-82.0631,0.86,26.98,1111122 
SCCF RECON,ioos:station:SCCF:11:1,2019-02-09T13:00:00Z,26.4679,-82.0631,0.777,26.99,1111122 
SCCF RECON,ioos:station:SCCF:11:1,2019-02-09T14:00:00Z,26.4679,-82.0631,0.688,27.0,1111122 
SCCF RECON,ioos:station:SCCF:11:1,2019-02-09T15:00:00Z,26.4679,-82.0631,0.65,27.02,1111122 
SCCF RECON,ioos:station:SCCF:11:1,2019-02-09T16:00:00Z,26.4679,-82.0631,0.697,26.93,1111122 
SCCF RECON,ioos:station:SCCF:11:1,2019-02-09T17:00:00Z,26.4679,-82.0631,0.809,27.0,1111122 
SCCF RECON,ioos:station:SCCF:11:1,2019-02-09T18:00:00Z,26.4679,-82.0631,0.933,27.01,1111122 
SCCF RECON,ioos:station:SCCF:11:1,2019-02-09T19:00:00Z,26.4679,-82.0631,1.051,26.96,1111122 
SCCF RECON,ioos:station:SCCF:11:1,2019-02-09T20:00:00Z,26.4679,-82.0631,1.14,27.04,1111122 
SCCF RECON,ioos:station:SCCF:11:1,2019-02-09T21:00:00Z,26.4679,-82.0631,1.17,27.07,1111122 
SCCF RECON,ioos:station:SCCF:11:1,2019-02-09T22:00:00Z,26.4679,-82.0631,1.129,27.02,1111122 
SCCF RECON,ioos:station:SCCF:11:1,2019-02-09T23:00:00Z,26.4679,-82.0631,1.052,27.0,1111122 
SCCF RECON,ioos:station:SCCF:11:1,2019-02-10T05:00:00Z,26.4679,-82.0631,0.851,27.0,1111122 
SCCF RECON,ioos:station:SCCF:11:1,2019-02-10T06:00:00Z,26.4679,-82.0631,0.96,26.98,1111122 
SCCF RECON,ioos:station:SCCF:11:1,2019-02-10T07:00:00Z,26.4679,-82.0631,1.06,26.15,1111122 
SCCF RECON,ioos:station:SCCF:11:1,2019-02-10T08:00:00Z,26.4679,-82.0631,1.121,25.94,1111122 
SCCF RECON,ioos:station:SCCF:11:1,2019-02-10T09:00:00Z,26.4679,-82.0631,1.164,26.15,1111122 
SCCF RECON,ioos:station:SCCF:11:1,2019-02-10T10:00:00Z,26.4679,-82.0631,1.11,26.14,1111122 
SCCF RECON,ioos:station:SCCF:11:1,2019-02-10T11:00:00Z,26.4679,-82.0631,1.01,26.37,1111122 
SCCF RECON,ioos:station:SCCF:11:1,2019-02-10T12:00:00Z,26.4679,-82.0631,0.932,26.62,1111122 
SCCF RECON,ioos:station:SCCF:11:1,2019-02-10T13:00:00Z,26.4679,-82.0631,0.864,26.84,1111122 
SCCF RECON,ioos:station:SCCF:11:1,2019-02-10T14:00:00Z,26.4679,-82.0631,0.786,26.87,1111122 
SCCF RECON,ioos:station:SCCF:11:1,2019-02-10T15:00:00Z,26.4679,-82.0631,0.712,26.97,1111122 
SCCF RECON,ioos:station:SCCF:11:1,2019-02-10T16:00:00Z,26.4679,-82.0631,0.73,26.94,1111122 
SCCF RECON,ioos:station:SCCF:11:1,2019-02-10T17:00:00Z,26.4679,-82.0631,0.821,26.51,1111122 
SCCF RECON,ioos:station:SCCF:11:1,2019-02-10T18:00:00Z,26.4679,-82.0631,0.97,26.33,1111122 
SCCF RECON,ioos:station:SCCF:11:1,2019-02-10T19:00:00Z,26.4679,-82.0631,1.091,26.38,1111122 
SCCF RECON,ioos:station:SCCF:11:1,2019-02-10T20:00:00Z,26.4679,-82.0631,1.18,26.65,1111122 
SCCF RECON,ioos:station:SCCF:11:1,2019-02-10T21:00:00Z,26.4679,-82.0631,1.241,27.11,1111122 
SCCF RECON,ioos:station:SCCF:11:1,2019-02-10T22:00:00Z,26.4679,-82.0631,1.279,27.79,1111122 
SCCF RECON,ioos:station:SCCF:11:1,2019-02-10T23:00:00Z,26.4679,-82.0631,1.24,27.06,1111122 
SCCF RECON,ioos:station:SCCF:11:1,2019-02-11T05:00:00Z,26.4679,-82.0631,0.88,26.72,1111122 
SCCF RECON,ioos:station:SCCF:11:1,2019-02-11T06:00:00Z,26.4679,-82.0631,0.961,26.77,1111122 
SCCF RECON,ioos:station:SCCF:11:1,2019-02-11T07:00:00Z,26.4679,-82.0631,1.062,27.35,1111122 
SCCF RECON,ioos:station:SCCF:11:1,2019-02-11T08:00:00Z,26.4679,-82.0631,1.13,27.47,1111122 
SCCF RECON,ioos:station:SCCF:11:1,2019-02-11T09:00:00Z,26.4679,-82.0631,1.189,27.42,1111122 
SCCF RECON,ioos:station:SCCF:11:1,2019-02-11T10:00:00Z,26.4679,-82.0631,1.2,27.69,1111122 
SCCF RECON,ioos:station:SCCF:11:1,2019-02-11T11:00:00Z,26.4679,-82.0631,1.18,27.74,1111122 
SCCF RECON,ioos:station:SCCF:11:1,2019-02-11T12:00:00Z,26.4679,-82.0631,1.123,27.78,1111122 
SCCF RECON,ioos:station:SCCF:11:1,2019-02-11T13:00:00Z,26.4679,-82.0631,1.03,26.86,1111122 
SCCF RECON,ioos:station:SCCF:11:1,2019-02-11T14:00:00Z,26.4679,-82.0631,0.955,26.92,1111122 
SCCF RECON,ioos:station:SCCF:11:1,2019-02-11T15:00:00Z,26.4679,-82.0631,0.891,26.92,1111122 
SCCF RECON,ioos:station:SCCF:11:1,2019-02-11T16:00:00Z,26.4679,-82.0631,0.849,26.92,1111122 
SCCF RECON,ioos:station:SCCF:11:1,2019-02-11T17:00:00Z,26.4679,-82.0631,0.889,27.0,1111122 
SCCF RECON,ioos:station:SCCF:11:1,2019-02-11T18:00:00Z,26.4679,-82.0631,0.98,27.95,1111122 
SCCF RECON,ioos:station:SCCF:11:1,2019-02-11T19:00:00Z,26.4679,-82.0631,1.076,28.9,1111122 
SCCF RECON,ioos:station:SCCF:11:1,2019-02-11T20:00:00Z,26.4679,-82.0631,1.164,28.93,1111122 
SCCF RECON,ioos:station:SCCF:11:1,2019-02-11T21:00:00Z,26.4679,-82.0631,1.23,29.03,1111122 
SCCF RECON,ioos:station:SCCF:11:1,2019-02-11T22:00:00Z,26.4679,-82.0631,1.279,29.75,1111122 
SCCF RECON,ioos:station:SCCF:11:1,2019-02-11T23:00:00Z,26.4679,-82.0631,1.27,29.78,1111122 
SCCF RECON,ioos:station:SCCF:11:1,2019-02-12T05:00:00Z,26.4679,-82.0631,0.81,27.58,1111122 
SCCF RECON,ioos:station:SCCF:11:1,2019-02-12T06:00:00Z,26.4679,-82.0631,0.854,27.79,1111122 
SCCF RECON,ioos:station:SCCF:11:1,2019-02-12T07:00:00Z,26.4679,-82.0631,0.93,29.41,1111122 
SCCF RECON,ioos:station:SCCF:11:1,2019-02-12T08:00:00Z,26.4679,-82.0631,1.01,29.77,1111122 
SCCF RECON,ioos:station:SCCF:11:1,2019-02-12T09:00:00Z,26.4679,-82.0631,1.074,28.85,1111122 
SCCF RECON,ioos:station:SCCF:11:1,2019-02-12T10:00:00Z,26.4679,-82.0631,1.13,28.85,1111122 
SCCF RECON,ioos:station:SCCF:11:1,2019-02-12T11:00:00Z,26.4679,-82.0631,1.18,29.57,1111122 
SCCF RECON,ioos:station:SCCF:11:1,2019-02-12T12:00:00Z,26.4679,-82.0631,1.181,30.15,1111122 
SCCF RECON,ioos:station:SCCF:11:1,2019-02-12T13:00:00Z,26.4679,-82.0631,1.151,30.42,1111122 
SCCF RECON,ioos:station:SCCF:11:1,2019-02-12T14:00:00Z,26.4679,-82.0631,1.1,30.43,1111122 
SCCF RECON,ioos:station:SCCF:11:1,2019-02-12T15:00:00Z,26.4679,-82.0631,1.07,30.2,1111122 
SCCF RECON,ioos:station:SCCF:11:1,2019-02-12T16:00:00Z,26.4679,-82.0631,1.039,30.3,1111122 
SCCF RECON,ioos:station:SCCF:11:1,2019-02-12T17:00:00Z,26.4679,-82.0631,1.04,30.35,1111122 
SCCF RECON,ioos:station:SCCF:11:1,2019-02-12T18:00:00Z,26.4679,-82.0631,1.062,31.45,1111122 
SCCF RECON,ioos:station:SCCF:11:1,2019-02-12T19:00:00Z,26.4679,-82.0631,1.12,31.62,1111122 
SCCF RECON,ioos:station:SCCF:11:1,2019-02-12T20:00:00Z,26.4679,-82.0631,1.192,31.95,1111122 
SCCF RECON,ioos:station:SCCF:11:1,2019-02-12T21:00:00Z,26.4679,-82.0631,1.27,32.19,1111122 
SCCF RECON,ioos:station:SCCF:11:1,2019-02-12T22:00:00Z,26.4679,-82.0631,1.301,32.19,1111122 
SCCF RECON,ioos:station:SCCF:11:1,2019-02-12T23:00:00Z,26.4679,-82.0631,1.31,32.19,1111122 
SCCF RECON,ioos:station:SCCF:11:1,2019-02-13T05:00:00Z,26.4679,-82.0631,0.823,28.81,1111122 
SCCF RECON,ioos:station:SCCF:11:1,2019-02-13T06:00:00Z,26.4679,-82.0631,0.728,28.66,1111122 
SCCF RECON,ioos:station:SCCF:11:1,2019-02-13T07:00:00Z,26.4679,-82.0631,0.767,29.78,1111122 
SCCF RECON,ioos:station:SCCF:11:1,2019-02-13T08:00:00Z,26.4679,-82.0631,0.836,30.81,1111122 
SCCF RECON,ioos:station:SCCF:11:1,2019-02-13T09:00:00Z,26.4679,-82.0631,0.843,30.78,1111122 
SCCF RECON,ioos:station:SCCF:11:1,2019-02-13T10:00:00Z,26.4679,-82.0631,0.857,30.71,1111122 
SCCF RECON,ioos:station:SCCF:11:1,2019-02-13T11:00:00Z,26.4679,-82.0631,0.881,30.66,1111122 
SCCF RECON,ioos:station:SCCF:11:1,2019-02-13T12:00:00Z,26.4679,-82.0631,0.864,30.62,1111122 
SCCF RECON,ioos:station:SCCF:11:1,2019-02-13T13:00:00Z,26.4679,-82.0631,0.788,29.83,1111122 
SCCF RECON,ioos:station:SCCF:11:1,2019-02-13T14:00:00Z,26.4679,-82.0631,0.819,29.69,1111122 
SCCF RECON,ioos:station:SCCF:11:1,2019-02-13T15:00:00Z,26.4679,-82.0631,0.791,29.87,1111122 
SCCF RECON,ioos:station:SCCF:11:1,2019-02-13T16:00:00Z,26.4679,-82.0631,0.747,29.02,1111122 
SCCF RECON,ioos:station:SCCF:11:1,2019-02-13T17:00:00Z,26.4679,-82.0631,0.732,29.56,1111122 
SCCF RECON,ioos:station:SCCF:11:1,2019-02-13T18:00:00Z,26.4679,-82.0631,0.755,29.2,1111122 
SCCF RECON,ioos:station:SCCF:11:1,2019-02-13T19:00:00Z,26.4679,-82.0631,0.766,29.89,1111122 
SCCF RECON,ioos:station:SCCF:11:1,2019-02-13T20:00:00Z,26.4679,-82.0631,0.794,29.9,1111122 
SCCF RECON,ioos:station:SCCF:11:1,2019-02-13T21:00:00Z,26.4679,-82.0631,0.881,29.82,1111122 
SCCF RECON,ioos:station:SCCF:11:1,2019-02-14T21:00:00Z,26.4679,-82.0631,1.075,27.32,1111122 
SCCF RECON,ioos:station:SCCF:11:1,2019-02-14T22:00:00Z,26.4679,-82.0631,1.15,27.44,1111122 
SCCF RECON,ioos:station:SCCF:11:1,2019-02-14T23:00:00Z,26.4679,-82.0631,1.224,27.65,1111122 
SCCF RECON,ioos:station:SCCF:11:1,2019-02-15T05:00:00Z,26.4679,-82.0631,0.941,27.95,1111122 
SCCF RECON,ioos:station:SCCF:11:1,2019-02-15T06:00:00Z,26.4679,-82.0631,0.814,28.14,1111122 
SCCF RECON,ioos:station:SCCF:11:1,2019-02-15T07:00:00Z,26.4679,-82.0631,0.686,28.29,1111122 
SCCF RECON,ioos:station:SCCF:11:1,2019-02-15T08:00:00Z,26.4679,-82.0631,0.589,28.31,1111122 
SCCF RECON,ioos:station:SCCF:11:1,2019-02-15T09:00:00Z,26.4679,-82.0631,0.53,28.32,1111122 
SCCF RECON,ioos:station:SCCF:11:1,2019-02-15T10:00:00Z,26.4679,-82.0631,0.552,28.28,1111122 
SCCF RECON,ioos:station:SCCF:11:1,2019-02-15T11:00:00Z,26.4679,-82.0631,0.66,28.23,1111122 
SCCF RECON,ioos:station:SCCF:11:1,2019-02-15T12:00:00Z,26.4679,-82.0631,0.794,27.21,1111122 
SCCF RECON,ioos:station:SCCF:11:1,2019-02-15T13:00:00Z,26.4679,-82.0631,0.92,26.69,1111122 
SCCF RECON,ioos:station:SCCF:11:1,2019-02-15T14:00:00Z,26.4679,-82.0631,1.029,27.45,1111122 
SCCF RECON,ioos:station:SCCF:11:1,2019-02-15T15:00:00Z,26.4679,-82.0631,1.09,27.34,1111122 